Weather in Popova Sapka

North Macedonia     42°00′49″N   20°53′01″E
temp.,
°C
wind,
m/s
gust,
m/s
humid.,
%
clouds,
%
prec.,
mm/h
press.,
hPa
HPBL,
m
27 november, sat
sat2701:00+4sw479139 5.5 1004133
04:00+5sw4794100 2.5 1004281
07:00+5wsw468928 3.9 1005143
10:00+7sw577970 0.4 1005435
13:00+7wsw35818 2.0 1005285
16:00+6wsw3280100 0.0 100426
19:00+5wsw228097 0.0 100420
22:00+5wsw3381100 0.0 100540
28 november, sun
sun2801:00+5sw249181 0.2 1005119
04:00+5sw239115 0.2 1004105
07:00+5sw348939 0.2 100566
10:00+8s3579100 0.0 1004384
13:00+11ssw4759100 0.0 10011480
16:00+6s3493100 3.1 1001552
19:00+4s3497100 9.7 1000339
22:00+4sw3593100 9.0 1000214
29 november, mon
mon2901:00+4sw3595100 9.4 998139
04:00+6wsw139399 1.3 996195
07:00+4wnw2293100 6.7 1000115
10:00+6s3376100 2.8 1000542
13:00+7s2263100 3.0 998783
16:00+4s4589100 0.6 1001172
19:00+3sw1396100 2.4 1001309
22:00+2sw2292100 0.1 100129
30 november, tue
tue3001:00+2w228597 0.1 100222
04:00+2nw2282100 0.1 100327
07:00+1ne2291100 0.4 1006127
10:00−1n2289100 1.6 1011345
13:000nne127189 2.8 1012740
16:00−1n1177100 0.1 101550
19:00−2nw117832 0.2 101820
22:00−5wnw32712 0.0 102025
1 december, wed
wed101:00−4wnw32630 0.0 102036
04:00−3wnw22655 0.0 102024
07:00−3wnw22635 0.0 102024
10:00+3s11550 0.0 1020303
13:00+6s22634 0.0 1017609
16:00+1ssw11843 0.0 101813
19:000w22730 0.0 101813
22:000wnw226181 0.0 101715